Location: Manosque
(43.8357°N, 5.7909°E)
Time: 15:18:25
(UTC+01:00)

ISS - Pass Details

Date: 29 October 2019
Orbit: 412 x 421 km, 51.6° (Epoch: 18 November)

Event Time Altitude Azimuth Distance (km) Brightness Sun altitude
Exits shadow 06:30:00 10° 280° (W) 1,510 -1.6 -7.5°
Reaches altitude 10° 06:30:00 10° 280° (W) 1,506 -1.6 -7.5°
Maximum altitude 06:33:01 29° 343° (NNW) 803 -2.6 -7.0°
Drops below altitude 10° 06:36:02 10° 46° (NE) 1,507 -0.4 -6.5°
Sets 06:38:19 0° 58° (ENE) 2,371 0.8 -6.1°
